Location: Patterson (historical)
(35.1418°N, 90.5529°W)
Time: 18:14:10
(UTC+00:00)

Cosmos 2360 Rocket - Pass Details

Date: 11 December 2025
Orbit: 835 x 842 km, 71.0° (Epoch: 20 January)

Event Time Altitude Azimuth Distance (km) Brightness Sun altitude
Exits shadow 12:22:32 - 334° (NNW) 3,368 4.9 -7.9°
Reaches altitude 10° 12:24:56 10° 332° (NNW) 2,450 4.2 -7.4°
Maximum altitude 12:30:28 62° 253° (WSW) 933 2.3 -6.4°
Drops below altitude 10° 12:35:58 10° 173° (S) 2,434 5.1 -5.4°
Sets 12:38:25 0° 170° (S) 3,364 5.9 -4.9°
